EW3139 Weather Reports


time (UTC)temp
C
wind
direction
speed
KPH
gust
KPH
rain 1hr
cm
rain 24hr
cm
rain mn
cm
humidity
%
barometer
mb
20260508102003 13 270 4.8 19.3 0.00 0.00 0.00 30 1024.9
20260508101004 13 258 4.8 14.5 0.00 0.00 0.00 32 1024.9
20260508100505 13 276 4.8 12.9 0.00 0.00 0.00 30 1024.9
20260508100004 13 331 3.2 12.9 0.00 0.00 0.00 31 1025.0
20260508095505 13 354 4.8 17.7 0.00 0.00 0.00 32 1024.9
20260508095004 12 355 4.8 17.7 0.00 0.00 0.00 31 1024.8
20260508094505 12 356 4.8 14.5 0.00 0.00 0.00 31 1024.9
20260508094004 12 315 4.8 16.1 0.00 0.00 0.00 30 1025.0
20260508093505 12 297 3.2 16.1 0.00 0.00 0.00 32 1024.8
20260508093004 12 343 3.2 14.5 0.00 0.00 0.00 32 1025.0
20260508092507 12 325 3.2 14.5 0.00 0.00 0.00 32 1024.9
20260508092004 12 328 3.2 12.9 0.00 0.00 0.00 32 1024.9
20260508091505 12 306 3.2 12.9 0.00 0.00 0.00 31 1024.8
20260508091004 12 275 4.8 20.9 0.00 0.00 0.00 32 1024.8
20260508090505 12 286 4.8 20.9 0.00 0.00 0.00 32 1024.9
20260508090005 12 320 1.6 9.7 0.00 0.00 0.00 32 1024.9
20260508085505 11 295 3.2 11.3 0.00 0.00 0.00 32 1024.8
20260508085004 11 291 4.8 14.5 0.00 0.00 0.00 32 1024.8
20260508084505 11 292 4.8 17.7 0.00 0.00 0.00 33 1024.8
20260508084004 11 319 6.4 20.9 0.00 0.00 0.00 32 1024.8
20260508083505 12 5 4.8 20.9 0.00 0.00 0.00 33 1024.8
20260508083005 12 5 3.2 17.7 0.00 0.00 0.00 33 1024.7
20260508082504 11 3 4.8 16.1 0.00 0.00 0.00 32 1024.6
20260508082004 11 345 4.8 16.1 0.00 0.00 0.00 33 1024.7
20260508081504 11 346 4.8 19.3 0.00 0.00 0.00 33 1024.7
20260508081004 11 327 4.8 19.3 0.00 0.00 0.00 35 1024.6
20260508080504 11 279 3.2 16.1 0.00 0.00 0.00 36 1024.6
20260508075504 10 351 4.8 20.9 0.00 0.00 0.00 36 1024.6
20260508075005 10 282 4.8 17.7 0.00 0.00 0.00 40 1024.5
20260508074504 10 272 6.4 17.7 0.00 0.00 0.00 40 1024.4
20260508074007 10 280 4.8 16.1 0.00 0.00 0.00 42 1024.4
20260508073505 10 281 3.2 8.0 0.00 0.00 0.00 46 1024.3
20260508073004 10 267 3.2 17.7 0.00 0.00 0.00 46 1024.3
20260508072505 10 274 4.8 17.7 0.00 0.00 0.00 45 1024.3
20260508072004 10 286 3.2 12.9 0.00 0.00 0.00 49 1024.2
20260508071504 10 290 3.2 12.9 0.00 0.00 0.00 50 1024.2
20260508071006 10 280 1.6 11.3 0.00 0.00 0.00 53 1024.2
20260508070505 10 292 3.2 11.3 0.00 0.00 0.00 55 1024.1
20260508065505 9 259 3.2 12.9 0.00 0.00 0.00 58 1024.0
20260508065004 8 280 1.6 9.7 0.00 0.00 0.00 61 1023.9
20260508064505 8 273 3.2 12.9 0.00 0.00 0.00 61 1023.9
20260508064004 8 270 3.2 12.9 0.00 0.00 0.00 60 1023.9
20260508063505 8 267 1.6 11.3 0.00 0.00 0.00 63 1023.9
20260508062505 8 282 1.6 8.0 0.00 0.00 0.00 67 1023.8
20260508061505 7 249 3.2 6.4 0.00 0.00 0.00 70 1023.7
20260508061005 7 247 3.2 9.7 0.00 0.00 0.00 71 1023.6
20260508060004 6 253 3.2 9.7 0.00 0.00 0.00 74 1023.5
20260508055506 6 265 1.6 9.7 0.00 0.00 0.00 75 1023.5
20260508055005 6 221 1.6 6.4 0.00 0.00 0.00 77 1023.4
20260508054506 6 217 3.2 8.0 0.00 0.00 0.00 78 1023.4
20260508054004 5 219 3.2 8.0 0.00 0.00 0.00 79 1023.3
20260508053505 5 220 3.2 8.0 0.00 0.00 0.00 81 1023.3
20260508053004 5 230 3.2 9.7 0.00 0.00 0.00 82 1023.2
20260508052506 4 258 1.6 9.7 0.00 0.00 0.00 83 1023.2
20260508052003 4 275 1.6 9.7 0.00 0.00 0.00 84 1023.0
20260508051505 4 268 3.2 9.7 0.00 0.00 0.00 84 1023.1
20260508051004 3 239 3.2 9.7 0.00 0.00 0.00 85 1023.0
20260508050505 3 221 3.2 6.4 0.00 0.00 0.00 85 1022.9
20260508050008 3 229 3.2 9.7 0.00 0.00 0.00 86 1022.9
20260508045505 3 215 4.8 9.7 0.00 0.00 0.00 86 1022.8
20260508045004 3 199 3.2 9.7 0.00 0.00 0.00 87 1022.8
20260508043506 2 259 3.2 11.3 0.00 0.00 0.00 89 1022.7
20260508043004 2 248 3.2 11.3 0.00 0.00 0.00 90 1022.7
20260508041504 1 245 3.2 6.4 0.00 0.00 0.00 93 1022.5
20260508041004 1 230 1.6 6.4 0.00 0.00 0.00 94 1022.4
20260508040507 1 219 0.0 4.8 0.00 0.00 0.00 94 1022.4
20260508035004 0 217 1.6 4.8 0.00 0.00 0.00 94 1022.2
20260508034505 0 216 0.0 4.8 0.00 0.00 0.00 94 1022.2
20260508034004 -1 215 0.0 3.2 0.00 0.00 0.00 93 1022.1
20260508033006 -1 215 0.0 4.8 0.00 0.00 0.00 94 1022.0
20260508032504 -1 215 0.0 4.8 0.00 0.00 0.00 93 1022.0
20260508031504 -2 203 0.0 1.6 0.00 0.00 0.00 92 1021.9
20260508025505 -2 0 0.0 0.0 0.00 0.00 0.00 90 1021.8
20260508025004 -2 0 0.0 0.0 0.00 0.00 0.00 90 1021.6
20260508024505 -2 0 0.0 0.0 0.00 0.00 0.00 90 1021.7
20260508024005 -2 0 0.0 0.0 0.00 0.00 0.00 90 1021.7
20260508023005 -2 0 0.0 0.0 0.00 0.00 0.00 90 1021.6
20260508022504 -2 0 0.0 0.0 0.00 0.00 0.00 90 1021.5
20260508022007 -2 0 0.0 0.0 0.00 0.00 0.00 90 1021.5
20260508021504 -2 0 0.0 0.0 0.00 0.00 0.00 90 1021.4
20260508021005 -2 0 0.0 0.0 0.00 0.00 0.00 89 1021.4
20260508020504 -2 0 0.0 0.0 0.00 0.00 0.00 89 1021.3
20260508015005 -2 0 0.0 0.0 0.00 0.00 0.00 89 1021.3
20260508014504 -1 0 0.0 0.0 0.00 0.00 0.00 89 1021.2
20260508014005 -1 203 0.0 3.2 0.00 0.00 0.00 89 1021.1
20260508013504 -1 203 0.0 3.2 0.00 0.00 0.00 88 1021.1
20260508013006 -1 0 0.0 0.0 0.00 0.00 0.00 87 1021.0
20260508012504 -1 0 0.0 0.0 0.00 0.00 0.00 87 1021.0
20260508012005 -1 0 0.0 0.0 0.00 0.00 0.00 87 1020.9
20260508011005 -1 0 0.0 0.0 0.00 0.00 0.00 87 1020.8
20260508010504 -1 0 0.0 0.0 0.00 0.00 0.00 87 1020.8
20260508010006 -1 0 0.0 0.0 0.00 0.00 0.00 86 1020.8
20260508005504 0 0 0.0 0.0 0.00 0.00 0.00 86 1020.7
20260508005005 0 0 0.0 0.0 0.00 0.00 0.00 85 1020.7
20260508004504 0 0 0.0 0.0 0.00 0.00 0.00 85 1020.6
20260508004005 0 0 0.0 0.0 0.00 0.00 0.00 86 1020.6
20260508003504 0 0 0.0 0.0 0.00 0.00 0.00 86 1020.5
20260508003006 0 0 0.0 0.0 0.00 0.00 0.00 86 1020.5
20260508002505 0 203 0.0 1.6 0.00 0.00 0.00 86 1020.5
20260508002004 0 203 0.0 1.6 0.00 0.00 0.00 85 1020.5
20260508001505 0 203 0.0 3.2 0.00 0.00 0.00 84 1020.4
20260508001004 0 203 0.0 3.2 0.00 0.00 0.00 83 1020.4
20260508000005 0 202 0.0 3.2 0.00 0.00 0.00 82 1020.3
20260507235504 1 223 0.0 3.2 0.00 0.00 0.00 82 1020.2
20260507235006 1 282 0.0 4.8 0.00 0.00 0.00 82 1020.2
20260507234504 1 281 0.0 4.8 0.00 0.00 0.00 82 1020.1
20260507234005 1 276 0.0 3.2 0.00 0.00 0.00 81 1020.0
20260507233504 1 271 0.0 3.2 0.00 0.00 0.00 80 1020.1
20260507233006 1 269 1.6 4.8 0.00 0.00 0.00 81 1020.0
20260507231504 1 282 1.6 8.0 0.00 0.00 0.00 80 1019.9
20260507231006 1 274 1.6 11.3 0.00 0.00 0.00 80 1019.9
20260507230504 1 273 1.6 11.3 0.00 0.00 0.00 80 1019.8
20260507230005 1 265 0.0 3.2 0.00 0.00 0.00 79 1019.8
20260507225504 1 235 0.0 3.2 0.00 0.00 0.00 79 1019.7
20260507224504 1 274 1.6 6.4 0.00 0.00 0.00 79 1019.6
20260507222505 1 253 0.0 3.2 0.00 0.00 0.00 79 1019.4
20260507222004 1 253 0.0 6.4 0.00 0.00 0.00 79 1019.4
20260507221505 1 242 1.6 6.4 0.00 0.00 0.00 79 1019.3
20260507221004 1 234 0.0 4.8 0.00 0.00 0.00 79 1019.3
20260507220505 1 248 0.0 3.2 0.00 0.00 0.00 79 1019.2
20260507220004 1 248 0.0 3.2 0.00 0.00 0.00 78 1019.3
20260507215505 1 251 0.0 3.2 0.00 0.00 0.00 78 1019.2
20260507215004 1 251 0.0 3.2 0.00 0.00 0.00 77 1019.1
20260507214505 1 252 0.0 1.6 0.00 0.00 0.00 77 1019.0
20260507214004 1 0 0.0 0.0 0.00 0.00 0.00 77 1019.0
20260507213004 1 257 0.0 4.8 0.00 0.00 0.00 77 1018.9
20260507212506 1 267 1.6 4.8 0.00 0.00 0.00 78 1018.8
20260507212003 1 270 0.0 3.2 0.00 0.00 0.00 78 1018.8
20260507211506 1 257 0.0 1.6 0.00 0.00 0.00 77 1018.8
20260507211004 1 257 0.0 1.6 0.00 0.00 0.00 76 1018.8
20260507210506 1 257 0.0 1.6 0.00 0.00 0.00 76 1018.7
20260507210006 1 257 0.0 1.6 0.00 0.00 0.00 75 1018.6
20260507205004 2 0 0.0 0.0 0.00 0.00 0.00 74 1018.6
20260507204505 2 0 0.0 0.0 0.00 0.00 0.00 73 1018.6
20260507204004 2 257 0.0 1.6 0.00 0.00 0.00 73 1018.5
20260507203505 2 252 0.0 3.2 0.00 0.00 0.00 73 1018.4
20260507203006 2 250 1.6 6.4 0.00 0.00 0.00 73 1018.4
20260507202504 2 250 1.6 6.4 0.00 0.00 0.00 73 1018.3
20260507202005 2 265 0.0 1.6 0.00 0.00 0.00 72 1018.3
20260507201504 2 0 0.0 0.0 0.00 0.00 0.00 71 1018.3
20260507201005 3 0 0.0 0.0 0.00 0.00 0.00 70 1018.2
20260507200006 3 265 0.0 3.2 0.00 0.00 0.00 69 1018.2
20260507195504 3 264 0.0 3.2 0.00 0.00 0.00 69 1018.2
20260507195006 3 264 0.0 3.2 0.00 0.00 0.00 68 1018.1
20260507194006 3 264 0.0 3.2 0.00 0.00 0.00 67 1017.9
20260507193006 4 260 0.0 6.4 0.00 0.00 0.00 65 1017.8
20260507192006 4 266 0.0 4.8 0.00 0.00 0.00 65 1017.7
20260507191504 5 274 0.0 4.8 0.00 0.00 0.00 64 1017.7
20260507191006 5 276 0.0 4.8 0.00 0.00 0.00 64 1017.6
20260507190005 5 275 1.6 9.7 0.00 0.00 0.00 63 1017.5
20260507185506 5 277 0.0 9.7 0.00 0.00 0.00 62 1017.5
20260507185004 5 299 0.0 4.8 0.00 0.00 0.00 62 1017.4
20260507184505 5 306 0.0 8.0 0.00 0.00 0.00 62 1017.4
20260507184004 5 298 1.6 8.0 0.00 0.00 0.00 61 1017.3
20260507183507 5 292 0.0 8.0 0.00 0.00 0.00 61 1017.3
20260507182506 6 287 1.6 6.4 0.00 0.00 0.00 60 1017.1
20260507182004 6 279 1.6 11.3 0.00 0.00 0.00 60 1017.1
20260507181004 6 282 1.6 12.9 0.00 0.00 0.00 58 1017.0
20260507180506 6 284 1.6 12.9 0.00 0.00 0.00 58 1016.9
20260507180004 6 296 1.6 9.7 0.00 0.00 0.00 57 1016.9
20260507175506 6 287 3.2 14.5 0.00 0.00 0.00 56 1016.8
20260507174505 6 277 3.2 17.7 0.00 0.00 0.00 54 1016.7
20260507174004 7 283 3.2 17.7 0.00 0.00 0.00 53 1016.7
20260507173505 7 281 6.4 24.1 0.00 0.00 0.00 52 1016.6
20260507173004 7 278 4.8 24.1 0.00 0.00 0.00 50 1016.5
20260507172506 7 304 1.6 9.7 0.00 0.00 0.00 50 1016.4
20260507172005 7 307 3.2 12.9 0.00 0.00 0.00 49 1016.4
20260507171505 7 295 3.2 12.9 0.00 0.00 0.00 49 1016.4
20260507171004 8 286 3.2 16.1 0.00 0.00 0.00 52 1016.3
20260507170006 8 313 3.2 12.9 0.00 0.00 0.00 49 1016.1
20260507165504 8 317 1.6 12.9 0.00 0.00 0.00 48 1016.1
20260507165005 8 294 3.2 16.1 0.00 0.00 0.00 47 1016.0
20260507164504 8 273 6.4 17.7 0.00 0.00 0.00 47 1016.0
20260507164006 8 265 6.4 25.7 0.00 0.00 0.00 46 1015.9
20260507163504 8 274 4.8 25.7 0.00 0.00 0.00 45 1015.9
20260507163006 8 295 3.2 11.3 0.00 0.00 0.00 46 1015.9
20260507162006 8 285 4.8 17.7 0.00 0.00 0.00 44 1015.8
20260507161506 8 284 3.2 14.5 0.00 0.00 0.00 43 1015.7
20260507161005 9 293 3.2 20.9 0.00 0.00 0.00 43 1015.7
20260507160504 8 301 3.2 20.9 0.00 0.00 0.00 44 1015.6
20260507160005 9 304 1.6 12.9 0.00 0.00 0.00 43 1015.6
20260507155504 9 283 4.8 24.1 0.00 0.00 0.00 44 1015.6
20260507154504 9 277 6.4 24.1 0.00 0.00 0.00 44 1015.4
20260507154008 9 280 6.4 20.9 0.00 0.00 0.00 42 1015.4
20260507153506 9 283 4.8 22.5 0.00 0.00 0.00 44 1015.3
20260507153004 10 276 6.4 22.5 0.00 0.00 0.00 43 1015.3
20260507152004 10 285 6.4 22.5 0.00 0.00 0.00 42 1015.2
20260507151506 10 303 4.8 25.7 0.00 0.00 0.00 42 1015.1
20260507151004 10 283 6.4 25.7 0.00 0.00 0.00 41 1015.1
20260507150506 10 279 8.0 25.7 0.00 0.00 0.00 39 1015.0
20260507150005 10 280 4.8 24.1 0.00 0.00 0.00 38 1015.0
20260507145506 10 265 4.8 20.9 0.00 0.00 0.00 40 1014.9
20260507144506 10 286 6.4 27.4 0.00 0.00 0.00 40 1014.9
20260507144004 10 272 8.0 25.7 0.00 0.00 0.00 41 1014.7
20260507143506 10 263 8.0 25.7 0.00 0.00 0.00 43 1014.7
20260507143004 10 270 6.4 22.5 0.00 0.00 0.00 45 1014.7
20260507142506 10 274 6.4 22.5 0.00 0.00 0.00 46 1014.5
20260507142004 10 280 8.0 27.4 0.00 0.00 0.00 47 1014.5
20260507141505 10 282 8.0 27.4 0.00 0.00 0.00 45 1014.5
20260507140505 10 271 9.7 27.4 0.00 0.00 0.00 42 1014.4
20260507140005 10 261 11.3 27.4 0.00 0.00 0.00 42 1014.3
20260507135506 10 256 11.3 29.0 0.00 0.00 0.00 43 1014.3
20260507135006 10 253 12.9 29.0 0.00 0.00 0.00 43 1014.2
20260507134504 10 249 12.9 24.1 0.00 0.00 0.00 42 1014.2
20260507134006 10 253 11.3 27.4 0.00 0.00 0.00 44 1014.1
20260507133504 10 252 11.3 29.0 0.00 0.00 0.00 46 1014.1
20260507132504 10 239 11.3 29.0 0.00 0.00 0.00 46 1014.1
20260507131504 10 221 12.9 25.7 0.00 0.00 0.00 45 1013.9
20260507131006 11 227 11.3 25.7 0.00 0.00 0.00 45 1013.9
20260507130504 10 240 11.3 24.1 0.00 0.00 0.00 46 1013.9
20260507130006 10 242 9.7 22.5 0.00 0.00 0.00 47 1014.0
20260507125504 10 247 9.7 22.5 0.00 0.00 0.00 48 1014.0
20260507125006 10 248 9.7 22.5 0.00 0.00 0.00 48 1014.0
20260507124504 10 231 11.3 22.5 0.00 0.00 0.00 48 1014.1
20260507123504 10 215 11.3 22.5 0.00 0.00 0.00 48 1014.1
20260507123005 10 219 11.3 20.9 0.00 0.00 0.00 45 1014.1
20260507122504 10 205 12.9 25.7 0.00 0.00 0.00 45 1014.0
20260507122006 10 211 12.9 25.7 0.00 0.00 0.00 45 1014.0
20260507121504 10 247 11.3 24.1 0.00 0.00 0.00 47 1014.0
20260507121006 10 236 11.3 24.1 0.00 0.00 0.00 47 1014.0
20260507120505 9 224 11.3 24.1 0.00 0.00 0.00 46 1014.0
20260507120005 9 234 11.3 22.5 0.00 0.00 0.00 46 1014.0
20260507115505 10 233 12.9 22.5 0.00 0.00 0.00 45 1014.1
20260507115004 10 221 11.3 27.4 0.00 0.00 0.00 44 1014.1
20260507114505 10 218 11.3 27.4 0.00 0.00 0.00 42 1014.1
20260507114004 11 216 11.3 22.5 0.00 0.00 0.00 42 1014.0
20260507113506 11 212 11.3 22.5 0.00 0.00 0.00 41 1014.1
20260507113005 10 230 11.3 24.1 0.00 0.00 0.00 41 1014.1
20260507112005 10 245 11.3 24.1 0.00 0.00 0.00 39 1014.1
20260507111507 10 229 9.7 24.1 0.00 0.00 0.00 38 1014.1
20260507110506 10 234 9.7 25.7 0.00 0.00 0.00 36 1014.0
20260507110004 9 217 9.7 22.5 0.00 0.00 0.00 36 1014.0
20260507105506 9 190 8.0 16.1 0.00 0.00 0.00 36 1013.9
20260507105004 9 194 8.0 16.1 0.00 0.00 0.00 36 1013.9
20260507104506 9 219 11.3 30.6 0.00 0.00 0.00 36 1014.0
20260507104004 9 236 11.3 30.6 0.00 0.00 0.00 36 1014.2
20260507103506 10 230 9.7 22.5 0.00 0.00 0.00 35 1014.0
20260507103004 9 225 9.7 20.9 0.00 0.00 0.00 35 1013.9